Tracking 29892 objects as of 21-Nov-2024
HD Live streaming from Space Station
objects crossing your sky now

STARLINK-4050

Track STARLINK-4050 now!
10-day predictions
STARLINK-4050 is classified as:


NORAD ID: 53274
Int'l Code: 2022-086AJ
Perigee: 544.8 km
Apogee: 548.8 km
Inclination: 53.2 °
Period: 95.4 minutes
Semi major axis: 6917 km
RCS: Unknown
Launch date: July 24, 2022
Source: United States (US)
Launch site: AIR FORCE EASTERN TEST RANGE (AFETR)
Your satellite tracking list
Your tracking list is empty




NASA's NSSDC Master Catalog

Two Line Element Set (TLE):
1 53274U 22086AJ  24324.76556384  .00000696  00000-0  61816-4 0  9995
2 53274  53.2157 156.1360 0002908 125.4500 234.6764 15.08861597129503
Source of the keplerian elements: AFSPC